Theta_e
299 299 300 300 300 300 300 301 301 301 301 301 301 301 302 302 302 301 302 304 304 305 306 307 306 304 304 305 311 321 322 324 325 326 327 319 318 317 315 315 315 318 315 315 315
299 299 299 300 300 300 300 301 301 301 301 301 301 301 301 302 302 302 302 303 302 305 308 307 309 305 305 308 313 320 320 324 319 317 316 317 318 316 315 312 312 312 312 313 312
299 299 299 300 300 300 300 300 301 301 301 301 301 301 301 302 301 302 302 302 302 308 309 306 311 307 308 314 318 318 320 317 312 312 311 315 316 314 313 312 313 312 311 311 311
299 299 299 300 300 300 300 301 301 301 301 301 301 301 301 301 304 303 302 302 303 309 310 310 312 313 314 314 316 316 316 313 311 310 309 310 311 313 313 315 315 316 317 314 311
300 300 300 300 300 300 300 301 301 301 301 301 301 300 300 300 302 303 302 303 305 309 311 310 311 312 313 314 315 314 313 310 308 308 308 307 307 310 310 314 313 312 313 313 312
301 301 301 301 301 301 301 301 301 301 301 300 300 300 299 300 302 303 302 303 307 308 309 308 311 313 312 310 313 309 309 308 307 307 306 305 307 307 312 316 313 313 312 310 310
302 302 303 304 303 302 302 302 302 301 300 300 300 299 299 301 301 302 302 302 304 306 308 309 309 312 311 309 307 307 308 308 306 305 305 304 308 304 313 312 314 313 311 311 309
306 308 310 312 306 303 302 302 302 301 300 300 299 299 300 302 301 300 301 302 303 304 305 307 309 308 308 308 305 306 307 311 307 303 304 305 313 310 308 308 310 309 310 310 309
311 312 313 314 302 305 302 302 302 301 300 299 299 299 300 301 300 300 301 302 302 302 304 305 306 306 305 306 307 307 308 309 309 303 303 303 307 306 306 306 306 307 307 308 308
315 315 315 315 312 308 304 303 302 301 300 299 299 300 299 300 300 300 300 301 302 301 302 303 304 303 303 305 307 307 307 307 307 304 302 302 302 303 305 304 304 306 307 305 307
315 315 316 315 315 310 311 305 303 305 303 301 302 301 302 300 300 300 300 301 302 302 302 303 301 300 302 303 304 303 303 303 304 302 302 302 301 302 303 303 303 304 305 305 305
315 315 315 315 315 312 313 311 302 301 301 303 301 302 300 299 300 299 300 301 302 300 302 301 299 302 302 302 303 302 302 302 303 302 301 302 301 304 304 304 305 305 304 306 306
315 315 316 315 315 314 313 313 310 301 300 303 301 300 299 298 299 300 300 301 301 302 300 300 301 301 302 302 302 302 302 304 304 304 302 301 302 304 306 304 305 306 306 307 308
314 313 313 315 314 314 313 314 311 300 298 304 299 299 298 299 299 300 300 301 301 301 301 301 300 300 300 302 302 302 301 303 303 304 302 304 303 304 307 307 305 305 306 307 308
313 314 314 313 313 314 313 314 311 306 306 303 299 299 300 299 300 300 299 300 300 300 300 300 298 299 301 301 301 302 301 303 303 303 304 304 302 303 304 308 308 304 306 307 308
312 312 312 312 313 314 314 314 310 303 303 301 299 299 299 299 300 299 300 301 301 300 300 299 298 299 300 298 299 299 301 302 302 302 303 302 303 303 308 309 307 307 307 308 307
296 301 307 310 312 314 314 313 312 305 303 301 297 299 299 300 299 300 300 299 298 295 299 300 298 297 298 298 298 300 301 306 307 303 305 302 303 304 306 306 307 305 306 307 307
296 294 295 308 312 313 312 308 317 305 301 303 299 300 299 299 299 299 300 298 298 302 298 299 300 296 296 298 298 298 302 305 305 314 313 302 305 308 306 305 306 306 306 306 306
295 295 294 294 306 311 312 312 315 313 310 304 299 300 295 301 299 299 297 297 299 299 301 301 305 297 296 296 298 299 301 302 302 297 303 303 303 305 305 304 303 304 305 305 305
294 294 293 294 298 308 307 312 311 312 304 303 306 300 296 296 296 298 298 298 302 299 299 303 301 297 296 296 297 298 299 301 300 299 304 307 305 307 309 306 303 303 303 305 305
293 296 299 302 303 306 306 306 307 311 310 308 310 308 304 305 298 297 299 301 301 300 298 295 301 298 295 294 296 296 298 299 301 305 308 309 307 303 306 306 304 302 304 305 305
293 292 299 300 300 301 304 300 306 307 310 309 307 311 308 305 303 302 301 303 301 299 300 299 298 297 296 296 295 296 298 300 302 303 303 307 306 305 307 305 304 304 306 307 306
292 294 294 299 301 302 301 301 304 306 305 304 306 307 310 312 310 305 303 304 300 299 300 301 299 295 298 296 293 293 297 299 300 300 300 303 305 302 305 306 306 305 307 306 306
292 291 295 295 298 299 300 301 303 303 303 305 305 304 306 309 310 310 307 301 299 300 301 300 303 298 305 302 294 292 294 297 297 297 302 305 306 306 305 305 305 306 307 307 307
292 291 292 290 296 296 297 299 299 301 302 302 305 306 306 308 309 310 307 306 298 299 298 300 303 302 303 303 297 297 293 296 299 302 302 305 303 304 305 304 304 306 308 307 307
291 292 292 293 294 292 295 299 299 299 298 299 303 304 304 306 307 307 306 305 306 298 300 297 301 299 301 301 302 304 301 297 299 300 301 302 301 303 303 304 303 306 307 307 307
291 290 291 291 290 291 289 293 295 293 295 299 299 300 300 301 298 299 302 304 304 300 300 297 300 303 308 304 301 303 303 302 299 298 301 301 303 302 302 301 303 305 306 306 306
Wind_Speed
8 7 8 8 8 9 10 10 10 11 12 11 13 13 14 14 10 13 11 7 9 14 11 10 7 7 9 9 14 9 2 5 5 8 10 9 5 5 6 10 5 10 8 8 17
9 10 10 10 9 10 11 11 11 12 12 12 12 11 13 14 14 16 16 13 13 11 9 6 2 1 5 6 9 5 4 7 1 2 2 3 4 12 6 5 5 8 8 10 16
9 10 10 10 11 11 12 12 13 13 13 12 10 11 10 10 11 5 10 12 12 8 6 4 3 7 4 6 7 4 5 2 2 2 4 5 5 11 9 4 14 20 18 18 20
11 11 12 12 12 12 13 13 13 13 14 13 10 9 9 7 4 2 4 9 7 7 5 10 8 5 4 4 12 3 7 3 2 4 4 3 5 4 13 8 8 22 22 24 24
13 14 14 15 14 14 14 14 13 12 13 13 12 9 9 7 9 10 9 7 7 9 9 8 9 2 2 3 4 4 5 2 2 6 5 8 7 7 9 20 11 7 17 28 24
15 15 16 17 17 17 16 15 15 14 12 12 11 9 8 6 9 9 9 7 10 11 10 10 8 9 3 2 1 3 5 5 4 4 5 3 6 2 10 23 22 24 22 22 26
15 16 17 18 19 18 17 17 15 14 12 11 10 9 11 16 11 8 8 7 10 12 12 11 8 7 9 1 2 4 5 6 8 7 4 2 9 12 30 15 20 32 25 26 28
15 16 18 21 20 17 17 16 16 15 12 10 9 8 9 10 11 9 8 6 5 9 10 8 8 4 1 7 3 1 1 4 1 7 3 4 9 3 4 26 28 23 28 31 28
15 17 19 21 17 19 17 16 14 13 10 8 7 7 8 7 9 10 8 5 4 5 5 7 7 3 3 2 2 2 4 5 4 9 3 5 8 5 5 14 24 27 23 31 31
16 17 19 21 21 20 18 16 10 8 6 7 8 5 10 6 6 8 9 9 4 8 6 5 3 1 0 3 5 6 4 5 6 5 3 4 17 16 27 20 18 24 26 29 34
21 20 19 21 21 19 20 10 7 2 4 8 5 5 5 9 6 7 8 9 7 4 5 4 3 7 10 7 1 3 3 5 3 3 4 8 14 19 18 18 22 30 32 33 38
24 23 20 19 18 16 16 11 9 9 12 16 23 23 18 8 5 10 10 9 7 6 5 3 7 5 4 2 4 3 3 6 2 3 3 7 14 19 17 15 27 29 34 41 37
27 26 22 17 16 15 16 18 18 14 5 8 9 8 8 12 7 10 14 7 5 6 7 6 3 4 4 4 4 3 5 4 3 3 4 6 9 8 7 17 25 29 35 39 40
24 25 24 21 9 16 12 19 20 11 4 5 3 3 5 5 4 9 13 7 3 9 6 5 3 4 3 4 6 4 3 2 1 1 4 2 6 7 9 8 6 18 30 35 37
24 23 20 18 19 15 12 17 16 5 4 2 3 4 5 4 1 2 8 4 5 6 6 5 6 4 3 5 6 5 2 3 2 2 3 3 3 8 5 8 8 9 18 25 30
32 29 29 23 22 18 11 14 8 5 7 3 4 4 3 6 3 3 2 2 1 3 2 0 1 2 3 3 2 6 4 3 3 2 2 7 7 5 5 5 2 1 10 14 18
32 34 27 21 19 13 13 8 1 5 3 5 4 4 4 6 5 6 5 4 6 4 5 1 4 1 3 5 5 1 5 1 3 1 6 1 3 7 11 6 4 6 6 12 13
25 27 25 28 20 17 9 0 10 4 7 2 4 3 5 6 5 7 5 3 8 2 3 6 5 8 5 5 5 6 5 5 7 4 3 3 7 6 8 5 5 10 13 12 14
28 28 26 23 28 20 11 9 6 6 5 6 3 3 4 3 4 4 7 6 9 14 9 5 3 1 2 1 4 6 5 1 5 2 3 5 7 10 7 6 6 13 15 16 15
30 30 29 14 15 23 7 24 10 10 5 3 7 7 7 4 5 7 7 6 5 8 2 5 1 1 2 1 2 3 1 2 2 2 4 5 5 7 5 8 7 7 13 19 17
23 11 7 7 18 17 13 12 9 18 9 8 7 7 8 8 9 6 6 5 6 4 4 4 4 1 3 8 9 4 3 2 2 4 5 2 6 7 9 8 10 11 19 21 23
12 4 4 11 7 6 15 5 11 8 26 16 6 10 7 7 5 6 11 9 12 10 10 7 5 5 9 1 1 2 6 6 4 5 4 3 8 4 4 5 6 7 13 22 23
7 13 17 13 7 12 6 5 4 10 7 7 10 12 11 12 5 7 6 4 17 10 6 5 4 1 6 4 4 4 6 5 3 3 7 5 7 1 2 1 2 4 3 13 20
8 3 8 15 18 7 11 14 17 12 8 13 9 2 4 11 14 6 6 1 3 5 9 6 2 7 11 7 6 4 6 9 6 4 5 18 4 1 4 1 2 3 7 12 17
9 5 7 4 5 14 12 9 11 9 7 5 10 18 9 8 8 10 7 3 3 3 5 5 6 7 15 1 3 6 6 12 17 22 9 19 14 14 13 10 9 15 16 21 22
9 4 6 10 15 8 11 3 18 20 13 19 8 11 6 18 18 14 7 7 5 3 6 5 6 4 11 10 9 5 9 13 19 11 21 21 18 3 6 10 9 21 20 26 28
16 17 10 8 7 9 4 5 7 11 8 11 11 13 16 11 7 17 13 6 2 8 9 8 4 6 16 5 4 3 25 12 8 9 15 17 24 6 8 14 21 33 29 30 35
Wind_Direction
357 351 345 338 328 324 319 317 313 312 306 300 303 305 304 293 290 254 265 259 279 288 290 282 291 281 223 215 200 207 237 227 231 235 247 165 144 144 145 137 150 174 174 193 188
346 340 334 330 323 321 319 314 311 310 310 306 308 303 308 295 292 254 250 264 291 281 283 271 52 271 185 206 195 175 195 223 273 356 321 235 162 164 157 145 177 176 191 182 181
336 331 325 320 318 318 313 313 312 309 310 307 308 306 311 303 306 259 242 257 280 257 273 200 139 179 247 191 200 213 220 258 351 346 332 268 182 179 154 208 210 197 193 193 194
340 332 327 324 319 315 312 310 308 308 311 304 300 299 310 306 266 277 260 279 259 234 191 142 146 176 217 211 205 246 252 248 311 339 347 340 289 195 192 207 240 230 230 216 212
340 337 331 326 319 313 310 308 304 303 303 296 293 295 292 268 256 264 286 291 225 221 189 172 170 218 282 265 187 209 308 298 263 298 295 287 264 248 244 227 212 225 214 217 218
347 343 337 330 322 317 312 308 304 300 296 291 281 284 274 255 262 271 277 266 216 219 217 214 196 159 265 30 228 322 298 284 269 256 257 267 265 311 245 242 231 238 231 219 220
360 356 351 342 329 320 313 309 303 299 292 286 276 269 260 264 264 267 259 242 222 223 225 218 219 212 160 303 285 318 316 290 232 213 224 248 276 232 242 229 227 225 227 229 225
2 358 355 353 346 336 323 312 305 299 290 280 266 261 255 259 253 250 236 233 215 208 223 224 218 217 218 153 137 181 223 286 37 133 203 153 264 263 296 225 228 227 226 229 226
356 352 351 353 353 354 338 323 306 292 279 268 260 249 265 259 241 229 225 223 187 168 183 170 170 188 138 158 33 207 245 234 274 188 133 184 275 274 326 227 228 227 230 225 226
341 343 346 349 350 349 351 337 315 296 265 254 225 269 246 239 232 220 212 196 187 155 144 165 164 120 40 161 223 193 210 254 241 194 170 224 264 269 269 273 262 242 234 230 227
328 330 337 343 349 350 353 356 356 326 290 230 226 234 243 232 233 218 200 188 173 190 167 183 133 211 208 216 333 108 216 245 258 197 209 232 258 269 263 254 250 245 236 230 230
321 323 327 336 342 347 348 32 6 312 301 266 244 243 250 237 236 215 191 185 183 200 138 74 226 195 128 162 205 210 249 264 260 181 204 281 268 268 261 242 234 231 231 232 232
316 318 319 330 332 337 352 3 350 334 279 287 236 236 237 228 239 212 194 191 195 179 197 175 195 137 168 171 176 217 202 236 250 301 232 316 282 259 271 240 246 235 235 238 233
309 313 318 322 322 333 334 345 343 331 44 262 223 218 197 179 250 203 195 189 191 206 182 230 180 176 166 203 158 225 183 179 252 14 247 182 284 286 277 264 226 235 227 232 230
297 299 305 314 308 320 321 334 337 345 337 209 180 167 169 178 140 204 193 191 195 189 124 233 161 174 177 211 174 217 136 136 138 201 349 240 264 271 254 263 244 235 230 229 227
280 282 289 294 290 296 295 322 328 38 253 266 152 179 146 191 195 140 155 199 163 130 82 193 310 211 193 83 16 144 99 59 51 83 316 218 194 248 224 241 310 353 219 220 213
286 281 272 274 265 267 278 298 354 177 328 265 196 171 206 191 192 167 171 191 171 96 226 172 215 159 148 91 5 163 104 328 343 5 227 306 175 262 273 255 230 211 192 187 193
317 295 275 249 251 246 261 73 225 214 230 277 155 157 201 166 228 185 170 230 232 211 108 169 288 169 183 194 183 188 180 169 204 201 247 20 231 251 243 262 230 187 172 178 190
320 304 291 263 238 238 219 235 226 186 185 182 128 170 291 218 165 154 210 214 210 176 179 143 261 51 47 19 135 189 205 255 101 55 53 224 274 295 227 193 167 167 176 185 194
319 316 294 272 232 214 207 232 229 204 164 212 220 174 200 222 165 174 188 214 219 186 143 208 50 8 327 302 247 190 208 108 355 161 248 270 260 233 231 215 215 219 207 198 193
316 301 286 209 203 204 218 222 215 220 218 209 203 246 221 195 188 201 215 276 189 137 99 140 125 333 45 204 185 162 210 188 142 172 187 264 257 227 229 222 205 226 219 207 200
302 272 257 220 200 213 233 193 241 237 224 230 203 218 201 187 226 239 212 214 175 155 168 209 151 177 204 197 25 232 202 170 140 230 233 172 258 256 222 193 192 227 231 215 206
256 258 270 235 226 228 244 264 260 252 208 200 218 213 199 232 228 208 233 256 177 164 144 192 224 79 339 354 349 203 202 203 129 81 216 154 263 20 349 8 91 157 158 208 206
257 281 241 221 246 268 259 260 256 252 260 234 234 194 180 236 227 232 225 201 99 118 74 139 239 188 222 196 136 191 209 199 149 166 188 231 249 348 187 195 169 202 221 216 210
250 234 241 275 232 240 252 272 281 276 232 241 238 235 224 241 219 224 205 186 41 76 63 109 242 299 286 270 152 197 181 189 206 221 198 252 219 231 262 277 267 266 239 230 228
231 249 257 270 273 285 290 266 245 256 250 273 262 268 257 239 243 255 196 185 199 124 153 169 210 130 270 259 222 239 240 217 216 230 243 256 263 10 251 261 286 276 261 244 236
283 256 245 263 274 292 272 273 299 331 303 287 288 299 285 287 337 299 295 300 204 172 180 161 194 182 253 169 116 264 238 223 215 211 220 236 250 220 240 243 245 251 249 255 258